Location: Newark
(58.8333°N, 23.5833°E)
Time: 21:42:55
(UTC+00:00)

Tiros 1 despin weight - Pass Details

Date: 20 November 2019
Orbit: 594 x 642 km, 48.2° (Epoch: 14 December)

Event Time Altitude Azimuth Distance (km) Brightness Sun altitude
Rises 14:34:20 0° 251° (WSW) 2,836 ? -5.1°
Reaches altitude 10° 14:37:04 10° 235° (SW) 1,938 ? -5.4°
Maximum altitude 14:40:19 20° 188° (S) 1,399 ? -5.8°
Drops below altitude 10° 14:43:36 10° 140° (SE) 1,954 ? -6.1°
Sets 14:46:22 0° 124° (SE) 2,867 ? -6.4°
